,,PA_Meas_PMT16A,,PR_Meas_QMR101_102,,RH_Meas_QMH101,,SR_Meas_QMS101,,TA_Meas_QMH101,,GenWind,,GenWind,
time,status,PA,status,PR,status,RH,status,SR,status,TA,status,DirAvg,status,SpdAvg,
2010-12-14, 00:00:04,VALID,916.646,VALID,0,VALID,97.2367,VALID,0.107441,VALID,20.2083,VALID,11,VALID,0,
2010-12-14, 00:01:04,VALID,916.644,VALID,0,VALID,97.2367,VALID,0,VALID,20.2278,VALID,11,VALID,0,
2010-12-14, 00:02:04,VALID,916.619,VALID,0,VALID,97.2443,VALID,0.107441,VALID,20.2473,VALID,11,VALID,0,
2010-12-14, 00:03:04,VALID,916.616,VALID,0,VALID,97.229,VALID,0.107441,VALID,20.2473,VALID,11,VALID,0,
2010-12-14, 00:04:04,VALID,916.604,VALID,0,VALID,97.2214,VALID,0.107441,VALID,20.2473,VALID,11,VALID,0,
2010-12-14, 00:05:05,VALID,916.582,VALID,0,VALID,97.2062,VALID,0,VALID,20.2278,VALID,11,VALID,0.330469,
2010-12-14, 00:06:05,VALID,916.534,VALID,0,VALID,97.2138,VALID,0,VALID,20.1693,VALID,11,VALID,0.285547,
2010-12-14, 00:07:05,VALID,916.503,VALID,0,VALID,97.2367,VALID,0,VALID,20.1888,VALID,11,VALID,0.139062,
2010-12-14, 00:08:04,VALID,916.47,VALID,0,VALID,97.2214,VALID,0,VALID,20.2293,VALID,11,VALID,0,
2010-12-14, 00:09:05,VALID,916.42,VALID,0,VALID,97.1528,VALID,0.107441,VALID,20.1693,VALID,11,VALID,0.944531,
2010-12-14, 00:10:05,VALID,916.396,VALID,0,VALID,97.1986,VALID,0,VALID,20.1498,VALID,11,VALID,0.312109,
2010-12-14, 00:11:05,VALID,916.388,VALID,0,VALID,97.1986,VALID,0,VALID,20.1498,VALID,11,VALID,0.384375,
2010-12-14, 00:12:05,VALID,916.369,VALID,0,VALID,97.2062,VALID,0,VALID,20.1693,VALID,11,VALID,0.527344,
2010-12-14, 00:13:05,VALID,916.333,VALID,0,VALID,97.229,VALID,0,VALID,20.1303,VALID,10,VALID,0.698828,
2010-12-14, 00:14:05,VALID,916.301,VALID,0,VALID,97.2138,VALID,0,VALID,20.1513,VALID,10,VALID,0.423828,
2010-12-14, 00:15:05,VALID,916.303,VALID,0,VALID,97.229,VALID,0,VALID,20.1303,VALID,10,VALID,0.983594,
2010-12-14, 00:16:05,VALID,916.307,VALID,0,VALID,97.2367,VALID,0,VALID,20.1498,VALID,10,VALID,0.919531,
2010-12-14, 00:17:05,VALID,916.299,VALID,0,VALID,97.2138,VALID,0.107441,VALID,20.1498,VALID,9,VALID,0.758594,
2010-12-14, 00:18:05,VALID,916.332,VALID,0,VALID,97.2595,VALID,0.107441,VALID,20.1903,VALID,9,VALID,0.688672,
2010-12-14, 00:19:05,VALID,916.32,VALID,0,VALID,97.229,VALID,0,VALID,20.1693,VALID,9,VALID,0.517578,
2010-12-14, 00:20:05,VALID,916.319,VALID,0,VALID,97.2214,VALID,0.107441,VALID,20.1498,VALID,9,VALID,0.291016,
2010-12-14, 00:21:05,VALID,916.331,VALID,0,VALID,97.2138,VALID,0,VALID,20.1303,VALID,9,VALID,0.0191406,
2010-12-14, 00:22:05,VALID,916.325,VALID,0,VALID,97.2367,VALID,0,VALID,20.1708,VALID,9,VALID,0.157813,
2010-12-14, 00:23:05,VALID,916.241,VALID,0,VALID,97.2519,VALID,0,VALID,20.1498,VALID,9,VALID,1.09531,
2010-12-14, 00:24:05,VALID,916.242,VALID,0,VALID,97.2595,VALID,0,VALID,20.1693,VALID,8,VALID,0.703516,
2010-12-14, 00:25:05,VALID,916.229,VALID,0,VALID,97.2367,VALID,0.107441,VALID,20.1888,VALID,8,VALID,0.021875,
2010-12-14, 00:26:05,VALID,916.235,VALID,0,VALID,97.2367,VALID,0.107441,VALID,20.2083,VALID,9,VALID,0.202344,
2010-12-14, 00:27:05,VALID,916.249,VALID,0,VALID,97.2367,VALID,0,VALID,20.2083,VALID,9,VALID,0.504687,
2010-12-14, 00:28:05,VALID,916.229,VALID,0,VALID,97.2519,VALID,0,VALID,20.2098,VALID,8,VALID,0.0382813,
2010-12-14, 00:29:05,VALID,916.242,VALID,0,VALID,97.2367,VALID,0,VALID,20.2083,VALID,8,VALID,0.355859,
2010-12-14, 00:30:05,VALID,916.211,VALID,0,VALID,97.2443,VALID,0,VALID,20.1888,VALID,8,VALID,0.147266,
2010-12-14, 00:31:05,VALID,916.242,VALID,0,VALID,97.2443,VALID,0.107441,VALID,20.2098,VALID,8,VALID,0.307422,
2010-12-14, 00:32:05,VALID,916.228,VALID,0,VALID,97.2443,VALID,0,VALID,20.1888,VALID,8,VALID,0.29375,
2010-12-14, 00:33:05,VALID,916.277,VALID,0,VALID,97.2519,VALID,0,VALID,20.2083,VALID,8,VALID,0.659375,
2010-12-14, 00:34:05,VALID,916.308,VALID,0,VALID,97.229,VALID,0,VALID,20.1888,VALID,8,VALID,0.941016,
2010-12-14, 00:35:05,VALID,916.344,VALID,0,VALID,97.2595,VALID,0,VALID,20.2083,VALID,240,VALID,0.914844,
2010-12-14, 00:36:05,VALID,916.312,VALID,0,VALID,97.2367,VALID,0,VALID,20.1498,VALID,240,VALID,0.804688,
2010-12-14, 00:37:05,VALID,916.336,VALID,0,VALID,97.2443,VALID,0,VALID,20.1693,VALID,240,VALID,0.581641,
2010-12-14, 00:38:05,VALID,916.359,VALID,0,VALID,97.2443,VALID,0,VALID,20.1693,VALID,240,VALID,0.521094,
2010-12-14, 00:39:05,VALID,916.371,VALID,0,VALID,97.229,VALID,0,VALID,20.1693,VALID,240,VALID,0.666406,
2010-12-14, 00:40:05,VALID,916.365,VALID,0,VALID,97.229,VALID,0,VALID,20.1693,VALID,240,VALID,0.9125,
2010-12-14, 00:41:05,VALID,916.367,VALID,0,VALID,97.229,VALID,0,VALID,20.1693,VALID,240,VALID,0.969531,
2010-12-14, 00:42:05,VALID,916.388,VALID,0,VALID,97.2138,VALID,0,VALID,20.1498,VALID,256,VALID,1.25977,
2010-12-14, 00:43:05,VALID,916.403,VALID,0,VALID,97.2443,VALID,0,VALID,20.1498,VALID,257,VALID,0.766016,
2010-12-14, 00:44:05,VALID,916.427,VALID,0,VALID,97.2443,VALID,0,VALID,20.1498,VALID,257,VALID,0.553125,
2010-12-14, 00:45:05,VALID,916.438,VALID,0,VALID,97.2519,VALID,0,VALID,20.1693,VALID,257,VALID,0.492578,
2010-12-14, 00:46:05,VALID,916.411,VALID,0,VALID,97.2519,VALID,0,VALID,20.1693,VALID,257,VALID,0.489844,
2010-12-14, 00:47:05,VALID,916.411,VALID,0,VALID,97.2595,VALID,0,VALID,20.1498,VALID,257,VALID,0.0109375,
2010-12-14, 00:48:05,VALID,916.402,VALID,0,VALID,97.2595,VALID,0,VALID,20.1888,VALID,257,VALID,0.732031,
2010-12-14, 00:49:05,VALID,916.402,VALID,0,VALID,97.2672,VALID,0.107441,VALID,20.2083,VALID,258,VALID,0.33125,
2010-12-14, 00:50:05,VALID,916.405,VALID,0,VALID,97.2443,VALID,0,VALID,20.1888,VALID,258,VALID,0.338672,
2010-12-14, 00:51:05,VALID,916.383,VALID,0,VALID,97.2595,VALID,0,VALID,20.2083,VALID,258,VALID,0.730469,
2010-12-14, 00:52:05,VALID,916.364,VALID,0,VALID,97.2595,VALID,0,VALID,20.2293,VALID,259,VALID,0.516797,
2010-12-14, 00:53:05,VALID,916.369,VALID,0,VALID,97.2672,VALID,0,VALID,20.2293,VALID,259,VALID,0.558203,
2010-12-14, 00:54:05,VALID,916.35,VALID,0,VALID,97.2367,VALID,0,VALID,20.2278,VALID,259,VALID,0.174609,
2010-12-14, 00:55:05,VALID,916.348,VALID,0,VALID,97.2748,VALID,0.107441,VALID,20.2083,VALID,259,VALID,0.121875,
2010-12-14, 00:56:05,VALID,916.365,VALID,0,VALID,97.2443,VALID,0,VALID,20.2083,VALID,259,VALID,0.197266,
2010-12-14, 00:57:05,VALID,916.356,VALID,0,VALID,97.2443,VALID,0,VALID,20.1888,VALID,259,VALID,0.328516,
2010-12-14, 00:58:05,VALID,916.335,VALID,0,VALID,97.2595,VALID,0.107441,VALID,20.1888,VALID,260,VALID,0.444531,
2010-12-14, 00:59:05,VALID,916.361,VALID,0,VALID,97.2367,VALID,0,VALID,20.2083,VALID,259,VALID,0.29375,
2010-12-14, 01:00:05,VALID,916.371,VALID,0,VALID,97.2443,VALID,0,VALID,20.1888,VALID,21,VALID,0.823438,
2010-12-14, 01:01:05,VALID,916.355,VALID,0,VALID,97.2595,VALID,0,VALID,20.2278,VALID,21,VALID,0.866797,
2010-12-14, 01:02:05,VALID,916.351,VALID,0,VALID,97.2519,VALID,0,VALID,20.2083,VALID,21,VALID,1.16758,
2010-12-14, 01:03:05,VALID,916.375,VALID,0,VALID,97.2672,VALID,0.107441,VALID,20.2083,VALID,21,VALID,0.677734,
2010-12-14, 01:04:05,VALID,916.39,VALID,0,VALID,97.2367,VALID,0,VALID,20.2668,VALID,20,VALID,0,
2010-12-14, 01:05:05,VALID,916.407,VALID,0,VALID,97.2672,VALID,0,VALID,20.2473,VALID,21,VALID,0.310547,
2010-12-14, 01:06:05,VALID,916.392,VALID,0,VALID,97.2672,VALID,0,VALID,20.2473,VALID,20,VALID,0.214453,
2010-12-14, 01:07:05,VALID,916.374,VALID,0,VALID,97.2519,VALID,0,VALID,20.2278,VALID,20,VALID,0,
2010-12-14, 01:08:05,VALID,916.346,VALID,0,VALID,97.2672,VALID,0,VALID,20.2684,VALID,21,VALID,0.174219,
2010-12-14, 01:09:05,VALID,916.357,VALID,0,VALID,97.2672,VALID,0,VALID,20.2684,VALID,21,VALID,0.00195313,
2010-12-14, 01:10:05,VALID,916.353,VALID,0,VALID,97.2519,VALID,0,VALID,20.2684,VALID,21,VALID,0,
2010-12-14, 01:11:05,VALID,916.326,VALID,0,VALID,97.2443,VALID,0,VALID,20.2278,VALID,21,VALID,0.45625,
2010-12-14, 01:12:05,VALID,916.314,VALID,0,VALID,97.2595,VALID,0,VALID,20.2278,VALID,21,VALID,0.589844,
2010-12-14, 01:13:05,VALID,916.281,VALID,0,VALID,97.2672,VALID,0,VALID,20.2473,VALID,21,VALID,0.201172,
2010-12-14, 01:14:05,VALID,916.249,VALID,0,VALID,97.2595,VALID,0,VALID,20.2473,VALID,20,VALID,0.832812,
2010-12-14, 01:15:05,VALID,916.243,VALID,0.2,VALID,97.2595,VALID,0.107441,VALID,20.2863,VALID,21,VALID,0.1875,
2010-12-14, 01:16:05,VALID,916.265,VALID,0,VALID,97.2672,VALID,0.107441,VALID,20.2863,VALID,21,VALID,0.600781,
2010-12-14, 01:17:05,VALID,916.26,VALID,0,VALID,97.2672,VALID,0.107441,VALID,20.2653,VALID,20,VALID,0.234375,
2010-12-14, 01:18:05,VALID,916.259,VALID,0,VALID,97.2672,VALID,0.107441,VALID,20.2863,VALID,21,VALID,0,
2010-12-14, 01:19:05,VALID,916.262,VALID,0,VALID,97.2443,VALID,0.107441,VALID,20.2473,VALID,21,VALID,0.334375,
2010-12-14, 01:20:05,VALID,916.244,VALID,0,VALID,97.2595,VALID,0.107441,VALID,20.2083,VALID,21,VALID,0.515234,
2010-12-14, 01:21:05,VALID,916.228,VALID,0,VALID,97.2672,VALID,0,VALID,20.2278,VALID,21,VALID,0.0398437,
2010-12-14, 01:22:05,VALID,916.229,VALID,0,VALID,97.2595,VALID,0.107441,VALID,20.2068,VALID,21,VALID,0,
2010-12-14, 01:23:05,VALID,916.207,VALID,0.2,VALID,97.2824,VALID,0,VALID,20.2263,VALID,21,VALID,0.641797,
2010-12-14, 01:24:05,VALID,916.173,VALID,0,VALID,97.29,VALID,0.107441,VALID,20.2473,VALID,21,VALID,0.233203,
2010-12-14, 01:25:05,VALID,916.18,VALID,0,VALID,97.2748,VALID,0.107441,VALID,20.2668,VALID,20,VALID,0.2625,
2010-12-14, 01:26:05,VALID,916.177,VALID,0,VALID,97.2748,VALID,0.107441,VALID,20.2278,VALID,21,VALID,0,
2010-12-14, 01:27:05,VALID,916.205,VALID,0,VALID,97.2672,VALID,0.107441,VALID,20.2068,VALID,21,VALID,0.546484,
2010-12-14, 01:28:05,VALID,916.185,VALID,0,VALID,97.2672,VALID,0.107441,VALID,20.2083,VALID,20,VALID,0.244141,
2010-12-14, 01:29:05,VALID,916.161,VALID,0,VALID,97.2595,VALID,0.107441,VALID,20.2278,VALID,21,VALID,0.193359,
2010-12-14, 01:30:05,VALID,916.162,VALID,0,VALID,97.2672,VALID,0.107441,VALID,20.1888,VALID,243,VALID,0.399609,
2010-12-14, 01:31:05,VALID,916.123,VALID,0,VALID,97.2672,VALID,0.107441,VALID,20.1888,VALID,243,VALID,0.359375,
2010-12-14, 01:32:05,VALID,916.094,VALID,0,VALID,97.29,VALID,0.107441,VALID,20.2083,VALID,243,VALID,0.347266,
2010-12-14, 01:33:05,VALID,916.078,VALID,0,VALID,97.2824,VALID,0.107441,VALID,20.2263,VALID,243,VALID,0,
2010-12-14, 01:34:05,VALID,916.013,VALID,0,VALID,97.2672,VALID,0.107441,VALID,20.2473,VALID,243,VALID,0.517187,
2010-12-14, 01:35:05,VALID,915.982,VALID,0,VALID,97.2977,VALID,0,VALID,20.2473,VALID,13,VALID,0.257031,
2010-12-14, 01:36:05,VALID,915.915,VALID,0,VALID,97.2519,VALID,0.107441,VALID,20.2083,VALID,13,VALID,0.259766,
2010-12-14, 01:37:05,VALID,915.896,VALID,0,VALID,97.2672,VALID,0.107441,VALID,20.2278,VALID,13,VALID,0.385156,
2010-12-14, 01:38:05,VALID,915.872,VALID,0,VALID,97.2672,VALID,0.107441,VALID,20.2263,VALID,13,VALID,0.611328,
2010-12-14, 01:39:05,VALID,915.879,VALID,0,VALID,97.2595,VALID,0.107441,VALID,20.2668,VALID,13,VALID,0.332031,
2010-12-14, 01:40:05,VALID,915.876,VALID,0,VALID,97.2748,VALID,0,VALID,20.2668,VALID,13,VALID,0.246484,
2010-12-14, 01:41:05,VALID,915.85,VALID,0,VALID,97.2748,VALID,0,VALID,20.2668,VALID,13,VALID,0.172656,
2010-12-14, 01:42:05,VALID,915.876,VALID,0,VALID,97.2672,VALID,0.107441,VALID,20.2668,VALID,13,VALID,0,
2010-12-14, 01:43:05,VALID,915.855,VALID,0,VALID,97.29,VALID,0,VALID,20.3074,VALID,13,VALID,0.112891,
2010-12-14, 01:44:05,VALID,915.854,VALID,0,VALID,97.2519,VALID,0,VALID,20.2668,VALID,13,VALID,0.585547,
2010-12-14, 01:45:05,VALID,915.818,VALID,0,VALID,97.2595,VALID,0,VALID,20.2278,VALID,13,VALID,0.903516,
2010-12-14, 01:46:05,VALID,915.848,VALID,0,VALID,97.2595,VALID,0,VALID,20.2278,VALID,13,VALID,0.983984,
2010-12-14, 01:47:05,VALID,915.828,VALID,0,VALID,97.2748,VALID,0.107441,VALID,20.2473,VALID,13,VALID,0.96875,
2010-12-14, 01:48:05,VALID,915.815,VALID,0,VALID,97.2595,VALID,0.107441,VALID,20.2668,VALID,13,VALID,0.93125,
2010-12-14, 01:49:05,VALID,915.819,VALID,0,VALID,97.2672,VALID,0.107441,VALID,20.2473,VALID,13,VALID,0.907812,
2010-12-14, 01:50:05,VALID,915.839,VALID,0,VALID,97.2519,VALID,0.107441,VALID,20.2473,VALID,13,VALID,0.813672,
2010-12-14, 01:51:05,VALID,915.857,VALID,0,VALID,97.2748,VALID,0,VALID,20.2668,VALID,13,VALID,0.497656,
2010-12-14, 01:52:05,VALID,915.85,VALID,0,VALID,97.2748,VALID,0.107441,VALID,20.2863,VALID,13,VALID,0.236719,
2010-12-14, 01:53:05,VALID,915.83,VALID,0,VALID,97.2824,VALID,0.107441,VALID,20.2863,VALID,13,VALID,0.70625,
2010-12-14, 01:54:05,VALID,915.808,VALID,0,VALID,97.2595,VALID,0.107441,VALID,20.3058,VALID,13,VALID,0.718359,
2010-12-14, 01:55:05,VALID,915.788,VALID,0,VALID,97.2595,VALID,0,VALID,20.3058,VALID,13,VALID,0.790234,
2010-12-14, 01:56:05,VALID,915.751,VALID,0,VALID,97.2595,VALID,0.107441,VALID,20.2668,VALID,13,VALID,1.49727,
2010-12-14, 01:57:05,VALID,915.712,VALID,0,VALID,97.2824,VALID,0,VALID,20.2684,VALID,13,VALID,0.789844,
2010-12-14, 01:58:05,VALID,915.66,VALID,0,VALID,97.2748,VALID,0,VALID,20.2668,VALID,13,VALID,1.16562,
2010-12-14, 01:59:05,VALID,915.637,VALID,0,VALID,97.2519,VALID,0,VALID,20.2473,VALID,13,VALID,1.07852,
2010-12-14, 02:00:05,VALID,915.628,VALID,0,VALID,97.2519,VALID,0,VALID,20.2473,VALID,13,VALID,1.07109,
2010-12-14, 02:01:05,VALID,915.628,VALID,0,VALID,97.2824,VALID,0,VALID,20.2473,VALID,13,VALID,1.25039,
2010-12-14, 02:02:05,VALID,915.605,VALID,0,VALID,97.2443,VALID,0,VALID,20.2083,VALID,11,VALID,1.87812,
2010-12-14, 02:03:05,VALID,915.614,VALID,0,VALID,97.2595,VALID,0,VALID,20.1888,VALID,10,VALID,1.37383,
2010-12-14, 02:04:05,VALID,915.633,VALID,0,VALID,97.2519,VALID,0,VALID,20.2083,VALID,11,VALID,0.228906,
2010-12-14, 02:05:05,VALID,915.63,VALID,0,VALID,97.2519,VALID,0,VALID,20.2083,VALID,10,VALID,0.154297,
2010-12-14, 02:06:05,VALID,915.615,VALID,0,VALID,97.2748,VALID,0,VALID,20.1888,VALID,11,VALID,0.0304688,
2010-12-14, 02:07:05,VALID,915.641,VALID,0.2,VALID,97.2595,VALID,0.107441,VALID,20.2083,VALID,10,VALID,0,
2010-12-14, 02:08:05,VALID,915.611,VALID,0.2,VALID,97.2824,VALID,0.107441,VALID,20.2278,VALID,10,VALID,0,
2010-12-14, 02:09:05,VALID,915.594,VALID,0,VALID,97.2672,VALID,0.107441,VALID,20.2278,VALID,10,VALID,1.05352,
2010-12-14, 02:10:05,VALID,915.599,VALID,0,VALID,97.2672,VALID,0,VALID,20.2083,VALID,357,VALID,1.12188,
2010-12-14, 02:11:05,VALID,915.604,VALID,0.2,VALID,97.2519,VALID,0,VALID,20.1888,VALID,22,VALID,2.19609,
2010-12-14, 02:12:05,VALID,915.59,VALID,0,VALID,97.2672,VALID,0.107441,VALID,20.1888,VALID,20,VALID,1.0168,
2010-12-14, 02:13:05,VALID,915.615,VALID,0.2,VALID,97.2748,VALID,0.107441,VALID,20.2083,VALID,20,VALID,0.342187,
2010-12-14, 02:14:05,VALID,915.6,VALID,0,VALID,97.2595,VALID,0.107441,VALID,20.1888,VALID,21,VALID,0.48125,
2010-12-14, 02:15:05,VALID,915.573,VALID,0.2,VALID,97.2824,VALID,0,VALID,20.1903,VALID,20,VALID,0.266797,
2010-12-14, 02:16:05,VALID,915.523,VALID,0,VALID,97.2672,VALID,0,VALID,20.1693,VALID,20,VALID,1.5207,
2010-12-14, 02:17:05,VALID,915.563,VALID,0,VALID,97.2672,VALID,0,VALID,20.1708,VALID,9,VALID,0.755469,
2010-12-14, 02:18:05,VALID,915.548,VALID,0.2,VALID,97.2748,VALID,0.107441,VALID,20.1693,VALID,3,VALID,0.808984,
2010-12-14, 02:19:05,VALID,915.584,VALID,0.2,VALID,97.2672,VALID,0,VALID,20.1498,VALID,91,VALID,0.621484,
2010-12-14, 02:20:05,VALID,915.526,VALID,0.6,VALID,97.2519,VALID,0,VALID,20.1318,VALID,62,VALID,1.19883,
2010-12-14, 02:21:05,VALID,915.526,VALID,0.2,VALID,97.2672,VALID,0,VALID,20.0913,VALID,18,VALID,1.58516,
2010-12-14, 02:22:05,VALID,915.517,VALID,0.2,VALID,97.2748,VALID,0.107441,VALID,20.0913,VALID,32,VALID,1.96133,
2010-12-14, 02:23:05,VALID,915.535,VALID,0,VALID,97.2672,VALID,0,VALID,20.0718,VALID,278,VALID,1.79766,
2010-12-14, 02:24:05,VALID,915.505,VALID,0.2,VALID,97.2748,VALID,0.107441,VALID,20.0913,VALID,32,VALID,1.35625,
2010-12-14, 02:25:05,VALID,915.468,VALID,0,VALID,97.2748,VALID,0,VALID,20.0523,VALID,39,VALID,2.02227,
2010-12-14, 02:26:05,VALID,915.485,VALID,0,VALID,97.2595,VALID,0,VALID,20.0523,VALID,23,VALID,1.99141,
2010-12-14, 02:27:05,VALID,915.478,VALID,0.2,VALID,97.2824,VALID,0,VALID,20.0133,VALID,311,VALID,0.801562,
2010-12-14, 02:28:05,VALID,915.416,VALID,0.2,VALID,97.2519,VALID,0,VALID,20.0148,VALID,36,VALID,1.75117,
2010-12-14, 02:29:05,VALID,915.452,VALID,0.2,VALID,97.29,VALID,0,VALID,20.0148,VALID,31,VALID,1.13633,
2010-12-14, 02:30:05,VALID,915.426,VALID,0.2,VALID,97.1757,VALID,0.107441,VALID,19.8963,VALID,231,VALID,0.909375,
2010-12-14, 02:31:05,VALID,915.446,VALID,0.2,VALID,97.2138,VALID,0,VALID,19.8963,VALID,57,VALID,1.04961,
2010-12-14, 02:32:05,VALID,915.437,VALID,0.2,VALID,97.2443,VALID,0,VALID,19.8768,VALID,18,VALID,1.27617,
2010-12-14, 02:33:05,VALID,915.442,VALID,0,VALID,97.2748,VALID,0,VALID,19.9173,VALID,34,VALID,0.726563,
2010-12-14, 02:34:05,VALID,915.409,VALID,0,VALID,97.2443,VALID,0,VALID,19.8978,VALID,9,VALID,1.67695,
2010-12-14, 02:35:05,VALID,915.445,VALID,0,VALID,97.2367,VALID,0,VALID,19.8393,VALID,347,VALID,1.10742,
2010-12-14, 02:36:05,VALID,915.43,VALID,0,VALID,97.2748,VALID,0,VALID,19.8393,VALID,347,VALID,0.597266,
2010-12-14, 02:37:05,VALID,915.409,VALID,0,VALID,97.2672,VALID,0,VALID,19.8393,VALID,347,VALID,0.161328,
2010-12-14, 02:38:05,VALID,915.381,VALID,0,VALID,97.2824,VALID,0,VALID,19.8198,VALID,350,VALID,1.00703,
2010-12-14, 02:39:05,VALID,915.373,VALID,0,VALID,97.3129,VALID,0,VALID,19.8393,VALID,48,VALID,1.72578,
2010-12-14, 02:40:05,VALID,915.407,VALID,0,VALID,97.29,VALID,0,VALID,19.8183,VALID,233,VALID,1.32773,
2010-12-14, 02:41:05,VALID,915.371,VALID,0,VALID,97.2977,VALID,0,VALID,19.8393,VALID,233,VALID,0.148047,
2010-12-14, 02:42:05,VALID,915.327,VALID,0,VALID,97.2672,VALID,0,VALID,19.8003,VALID,17,VALID,1.55469,
2010-12-14, 02:43:05,VALID,915.287,VALID,0,VALID,97.2748,VALID,0,VALID,19.8003,VALID,26,VALID,2.53477,
2010-12-14, 02:44:05,VALID,915.32,VALID,0,VALID,97.29,VALID,0,VALID,19.7793,VALID,25,VALID,2.12539,
2010-12-14, 02:45:05,VALID,915.322,VALID,0,VALID,97.2977,VALID,0,VALID,19.7808,VALID,30,VALID,1.94531,
2010-12-14, 02:46:05,VALID,915.342,VALID,0,VALID,97.3281,VALID,0,VALID,19.7808,VALID,13,VALID,1.14844,
2010-12-14, 02:47:05,VALID,915.377,VALID,0,VALID,97.3205,VALID,0,VALID,19.8198,VALID,24,VALID,1.64922,
2010-12-14, 02:48:05,VALID,915.391,VALID,0,VALID,97.2519,VALID,0,VALID,19.7808,VALID,28,VALID,1.80859,
2010-12-14, 02:49:05,VALID,915.365,VALID,0,VALID,97.2824,VALID,0,VALID,19.7613,VALID,17,VALID,1.64453,
2010-12-14, 02:50:05,VALID,915.369,VALID,0,VALID,97.29,VALID,0,VALID,19.7808,VALID,7,VALID,1.87695,
2010-12-14, 02:51:05,VALID,915.342,VALID,0,VALID,97.3053,VALID,0,VALID,19.7403,VALID,8,VALID,1.8625,
2010-12-14, 02:52:05,VALID,915.391,VALID,0,VALID,97.3281,VALID,0,VALID,19.7613,VALID,14,VALID,1.82305,
2010-12-14, 02:53:04,VALID,915.359,VALID,0,VALID,97.3205,VALID,0,VALID,19.7403,VALID,38,VALID,1.66875,
2010-12-14, 02:54:04,VALID,915.337,VALID,0,VALID,97.3281,VALID,0,VALID,19.7598,VALID,37,VALID,1.39727,
2010-12-14, 02:55:04,VALID,915.352,VALID,0,VALID,97.3663,VALID,0,VALID,19.7808,VALID,26,VALID,1.47734,
2010-12-14, 02:56:04,VALID,915.326,VALID,0,VALID,97.3053,VALID,0,VALID,19.7613,VALID,18,VALID,0.934766,
2010-12-14, 02:57:04,VALID,915.29,VALID,0,VALID,97.2748,VALID,0,VALID,19.7403,VALID,18,VALID,2.49336,
2010-12-14, 02:58:04,VALID,915.262,VALID,0.2,VALID,97.3205,VALID,0,VALID,19.7208,VALID,27,VALID,2.15078,
2010-12-14, 02:59:04,VALID,915.223,VALID,0,VALID,97.3053,VALID,0,VALID,19.7403,VALID,14,VALID,1.80273,
2010-12-14, 03:00:04,VALID,915.195,VALID,0,VALID,97.3281,VALID,0,VALID,19.7403,VALID,14,VALID,1.56562,
2010-12-14, 03:01:04,VALID,915.219,VALID,0,VALID,97.2977,VALID,0,VALID,19.7403,VALID,21,VALID,1.91719,
2010-12-14, 03:02:04,VALID,915.19,VALID,0,VALID,97.3205,VALID,0,VALID,19.7403,VALID,23,VALID,0.552344,
2010-12-14, 03:03:04,VALID,915.174,VALID,0.2,VALID,97.3205,VALID,0,VALID,19.7403,VALID,23,VALID,0.671875,
2010-12-14, 03:04:04,VALID,915.183,VALID,0,VALID,97.2977,VALID,0,VALID,19.7598,VALID,4,VALID,0.774219,
2010-12-14, 03:05:04,VALID,915.203,VALID,0,VALID,97.3205,VALID,0,VALID,19.8003,VALID,4,VALID,0.249219,
2010-12-14, 03:06:04,VALID,915.211,VALID,0,VALID,97.2824,VALID,0,VALID,19.7598,VALID,4,VALID,0.369141,
2010-12-14, 03:07:04,VALID,915.228,VALID,0,VALID,97.2977,VALID,0,VALID,19.7793,VALID,4,VALID,0.00429688,
2010-12-14, 03:08:04,VALID,915.23,VALID,0,VALID,97.3053,VALID,0,VALID,19.7808,VALID,4,VALID,0.448438,
2010-12-14, 03:09:04,VALID,915.236,VALID,0,VALID,97.3281,VALID,0,VALID,19.8003,VALID,4,VALID,0.00117188,
2010-12-14, 03:10:04,VALID,915.169,VALID,0,VALID,97.2977,VALID,0.107441,VALID,19.8198,VALID,4,VALID,0.203125,
2010-12-14, 03:11:04,VALID,915.171,VALID,0.2,VALID,97.3129,VALID,0.107441,VALID,19.7988,VALID,4,VALID,0.282422,
2010-12-14, 03:12:04,VALID,915.109,VALID,0,VALID,97.29,VALID,0,VALID,19.8183,VALID,4,VALID,0.717188,
2010-12-14, 03:13:04,VALID,915.09,VALID,0,VALID,97.2443,VALID,0,VALID,19.7598,VALID,4,VALID,0.9125,
2010-12-14, 03:14:04,VALID,915.077,VALID,0,VALID,97.2977,VALID,0,VALID,19.7808,VALID,63,VALID,0.882031,
2010-12-14, 03:15:04,VALID,915.078,VALID,0.2,VALID,97.29,VALID,0,VALID,19.8198,VALID,270,VALID,0.689844,
2010-12-14, 03:16:04,VALID,915.048,VALID,0,VALID,97.29,VALID,0,VALID,19.8588,VALID,287,VALID,0.465625,
2010-12-14, 03:17:04,VALID,915.039,VALID,0,VALID,97.3053,VALID,0,VALID,19.7793,VALID,287,VALID,0.11875,
2010-12-14, 03:18:04,VALID,915.055,VALID,0,VALID,97.3053,VALID,0,VALID,19.8588,VALID,287,VALID,0.703906,
2010-12-14, 03:19:04,VALID,915.047,VALID,0,VALID,97.3053,VALID,0,VALID,19.8198,VALID,287,VALID,0.814453,
2010-12-14, 03:20:04,VALID,915.084,VALID,0,VALID,97.3205,VALID,0,VALID,19.8978,VALID,287,VALID,0.289063,
2010-12-14, 03:21:04,VALID,915.061,VALID,0,VALID,97.2824,VALID,0,VALID,19.8978,VALID,287,VALID,0.0660156,
2010-12-14, 03:22:04,VALID,915.076,VALID,0,VALID,97.3129,VALID,0,VALID,19.8588,VALID,140,VALID,0.417969,
2010-12-14, 03:23:04,VALID,915.051,VALID,0,VALID,97.2977,VALID,0,VALID,19.8783,VALID,140,VALID,0.695703,
2010-12-14, 03:24:04,VALID,915.049,VALID,0,VALID,97.2824,VALID,0,VALID,19.8783,VALID,140,VALID,0.333203,
2010-12-14, 03:25:04,VALID,915.056,VALID,0,VALID,97.29,VALID,0,VALID,19.8978,VALID,140,VALID,0.817578,
2010-12-14, 03:26:04,VALID,915.048,VALID,0,VALID,97.2977,VALID,0,VALID,19.9173,VALID,140,VALID,0.786719,
2010-12-14, 03:27:04,VALID,915.033,VALID,0,VALID,97.2519,VALID,0,VALID,19.9173,VALID,43,VALID,0.633984,
2010-12-14, 03:28:04,VALID,915.05,VALID,0,VALID,97.2748,VALID,0,VALID,19.9173,VALID,42,VALID,0.789844,
2010-12-14, 03:29:04,VALID,915.053,VALID,0,VALID,97.2519,VALID,0,VALID,19.9158,VALID,43,VALID,0.510938,
2010-12-14, 03:30:04,VALID,915.026,VALID,0,VALID,97.29,VALID,0,VALID,19.9158,VALID,43,VALID,0.813281,
2010-12-14, 03:31:04,VALID,915.04,VALID,0,VALID,97.2672,VALID,0,VALID,19.9173,VALID,43,VALID,0.98125,
2010-12-14, 03:32:04,VALID,915.063,VALID,0,VALID,97.2748,VALID,0,VALID,19.9173,VALID,43,VALID,0.515234,
2010-12-14, 03:33:04,VALID,915.049,VALID,0,VALID,97.2748,VALID,0,VALID,19.9368,VALID,43,VALID,0.637891,
2010-12-14, 03:34:04,VALID,915.056,VALID,0,VALID,97.2595,VALID,0,VALID,19.9173,VALID,324,VALID,0.0730469,
2010-12-14, 03:35:04,VALID,915.054,VALID,0,VALID,97.2672,VALID,0,VALID,19.9173,VALID,324,VALID,0.417578,
2010-12-14, 03:36:04,VALID,915.088,VALID,0,VALID,97.2748,VALID,0,VALID,19.9173,VALID,324,VALID,0.546484,
2010-12-14, 03:37:04,VALID,915.063,VALID,0,VALID,97.2824,VALID,0,VALID,19.9173,VALID,324,VALID,0.280469,
2010-12-14, 03:38:04,VALID,915.073,VALID,0,VALID,97.2748,VALID,0,VALID,19.8978,VALID,324,VALID,0.514844,
2010-12-14, 03:39:04,VALID,915.023,VALID,0,VALID,97.2748,VALID,0,VALID,19.9383,VALID,324,VALID,0.494922,
2010-12-14, 03:40:04,VALID,915.048,VALID,0,VALID,97.2595,VALID,0,VALID,19.9173,VALID,325,VALID,0.203125,
2010-12-14, 03:41:04,VALID,915.016,VALID,0,VALID,97.2672,VALID,0,VALID,19.8978,VALID,324,VALID,0.740234,
2010-12-14, 03:42:04,VALID,915.033,VALID,0,VALID,97.3053,VALID,0,VALID,19.9173,VALID,324,VALID,0.465234,
2010-12-14, 03:43:04,VALID,915.062,VALID,0,VALID,97.3129,VALID,0,VALID,19.9368,VALID,324,VALID,0.05625,